Location: Oshawa
(43.9000°N, 78.8670°W)
Time: 01:23:16
(UTC-04:00)

SPOT 5 - Visible Passes

Search period start: 25 June 2017 00:00
Search period end: 05 July 2017 00:00
Orbit: 624 x 815 km, 98.4° (Epoch: 24 June)

Date Brightness Start Highest point End Pass type
(mag) Time Alt. Az. Time Alt. Az. Time Alt. Az.
25 Jun 3.2 22:37:41 14° S 22:41:50 66° WSW 22:46:55 10° NNW visible
26 Jun 3.5 21:47:20 10° SE 21:51:55 43° ENE 21:56:45 10° N visible
26 Jun 4.8 23:26:18 10° SW 23:30:11 24° W 23:34:14 10° NW visible
27 Jun 3.2 22:35:37 14° S 22:39:51 69° WSW 22:45:00 10° NNW visible
28 Jun 3.6 21:45:21 10° SE 21:49:58 42° ENE 21:54:49 10° N visible
28 Jun 4.7 23:24:13 10° SSW 23:28:11 25° W 23:32:22 10° NW visible
29 Jun 3.1 22:33:34 14° S 22:37:52 73° WSW 22:43:04 10° NNW visible
30 Jun 3.7 21:43:22 10° SE 21:48:00 40° ENE 21:52:52 10° N visible
30 Jun 4.7 23:22:10 11° SSW 23:26:11 26° W 23:30:31 10° NW visible
01 Jul 3.1 22:31:32 14° S 22:35:54 76° WSW 22:41:09 10° NNW visible
02 Jul 3.7 21:41:24 10° SE 21:46:03 39° ENE 21:50:54 10° N visible
02 Jul 4.6 23:20:08 11° SSW 23:24:11 28° W 23:28:38 10° NW visible
03 Jul 3.1 22:29:30 14° S 22:33:55 79° WSW 22:39:13 10° NNW visible
04 Jul 3.8 21:39:26 10° SE 21:44:05 38° ENE 21:48:57 10° N visible
04 Jul 4.6 23:18:07 11° SSW 23:22:12 29° W 23:26:45 10° NW visible
